Hourly Data Report for October 26, 2015

All times are specified in Local Standard Time (LST). Add 1 hour to adjust for Daylight Saving Time where and when it is observed.

KITCHENER/WATERLOO
ONTARIO

43°27'39.000" N
80°22'43.000" W
321.60 m
6144239
71368
YKF

Download Data

Hourly Data (October 2015)
Hourly Data Report for October 26, 2015
Temp Definition
°C
Dew Point Temp Definition
°C
Rel Hum Definition
%
Wind Dir Definition
10's deg

Wind Spd Definition
km/h
Visibility Definition
km
Stn Press Definition
kPa
Hmdx Definition


Wind Chill Definition


Weather Definition


TIME
00:00 Legend Double Dagger -0.6 -0.6 100 LegendMM 4 9.7 99.00   -2 Fog
01:00 Legend Double Dagger 0.8 0.8 100 30 5 16.1 99.09     LegendNANA
02:00 Legend Double Dagger 2.6 2.3 98 6 11 16.1 99.13     LegendNANA
03:00 Legend Double Dagger 2.7 2.1 96   0 16.1 99.15     LegendNANA
04:00 Legend Double Dagger 2.9 2.5 97 7 5 16.1 99.15     LegendNANA
05:00 Legend Double Dagger 1.8 1.6 98   0 16.1 99.21     LegendNANA
06:00 Legend Double Dagger 1.0 0.9 99 35 11 12.9 99.26     LegendNANA
07:00 Legend Double Dagger 0.1 0.1 100 2 5 2.4 99.29     Fog
08:00 Legend Double Dagger 1.9 1.9 100   0 16.1 99.36     LegendNANA
09:00 Legend Double Dagger 5.6 3.5 86   0 16.1 99.38     LegendNANA
10:00 Legend Double Dagger 7.9 4.3 78 18 5 16.1 99.39     LegendNANA
11:00 Legend Double Dagger 8.9 3.0 66 17 8 16.1 99.35     LegendNANA
12:00 Legend Double Dagger 9.6 2.3 60 LegendMM 5 16.1 99.33     LegendNANA
13:00 Legend Double Dagger 10.8 2.1 55   0 16.1 99.26     LegendNANA
14:00 Legend Double Dagger 9.8 2.1 59   0 16.1 99.23     LegendNANA
15:00 Legend Double Dagger 10.3 2.0 56 25 5 16.1 99.23     LegendNANA
16:00 Legend Double Dagger 10.5 2.8 59   0 16.1 99.18     LegendNANA
17:00 Legend Double Dagger 9.4 2.2 60 7 4 16.1 99.20     LegendNANA
18:00 Legend Double Dagger 5.8 2.3 78 10 13 16.1 99.24     LegendNANA
19:00 Legend Double Dagger 4.8 1.8 81 13 8 16.1 99.30     LegendNANA
20:00 Legend Double Dagger 3.3 1.4 87 10 8 16.1 99.28     LegendNANA
21:00 Legend Double Dagger 2.7 1.8 94 14 4 16.1 99.32     LegendNANA
22:00 Legend Double Dagger 1.9 1.5 97 6 8 16.1 99.31     LegendNANA
23:00 Legend Double Dagger 1.0 0.7 98 LegendMM 4 16.1 99.30     LegendNANA

Notes on Data Quality.

Legend

  • E = Estimated
  • M = Missing
  • NA = Not Available
  • ‡ = Partner data that is not subject to review by the National Climate Archives
Date modified: